GW6926 Weather Reports


time (UTC)temp
C
wind
direction
speed
KPH
gust
KPH
rain 1hr
cm
rain 24hr
cm
rain mn
cm
humidity
%
barometer
mb
20260509000600 15 258 0.0 1.6 0.00 0.00 0.00 68 1014.2
20260509000056 15 258 0.0 3.2 0.00 0.00 0.00 67 1014.6
20260508235553 15 250 0.0 1.6 0.00 0.00 0.00 65 1014.3
20260508235050 15 253 0.0 3.2 0.00 0.00 0.00 66 1014.2
20260508234547 15 240 1.6 1.6 0.00 0.00 0.00 60 1014.3
20260508234044 15 242 1.6 3.2 0.00 0.00 0.00 61 1014.3
20260508233543 15 326 1.6 4.8 0.00 0.00 0.00 59 1014.2
20260508233040 16 273 0.0 1.6 0.00 0.00 0.00 63 1014.3
20260508232537 16 237 1.6 3.2 0.00 0.00 0.00 60 1014.3
20260508232034 16 233 1.6 3.2 0.00 0.00 0.00 59 1014.0
20260508231532 16 188 3.2 4.8 0.00 0.00 0.00 59 1014.2
20260508231028 16 253 0.0 0.0 0.00 0.00 0.00 57 1014.2
20260508230525 17 249 0.0 4.8 0.00 0.00 0.00 58 1014.3
20260508230022 17 255 0.0 0.0 0.00 0.00 0.00 58 1014.0
20260508225519 17 228 3.2 4.8 0.00 0.00 0.00 55 1014.0
20260508225016 17 272 0.0 1.6 0.00 0.00 0.00 59 1014.1
20260508224514 17 262 0.0 1.6 0.00 0.00 0.00 54 1013.8
20260508224011 18 284 0.0 1.6 0.00 0.00 0.00 58 1013.9
20260508223509 18 247 1.6 1.6 0.00 0.00 0.00 53 1014.1
20260508223006 18 264 0.0 1.6 0.00 0.00 0.00 53 1014.1
20260508222503 18 280 1.6 3.2 0.00 0.00 0.00 53 1013.9
20260508221959 18 280 0.0 0.0 0.00 0.00 0.00 50 1014.1
20260508221455 19 292 0.0 0.0 0.00 0.00 0.00 47 1014.0
20260508220952 19 295 0.0 1.6 0.00 0.00 0.00 43 1014.0
20260508220448 20 247 1.6 1.6 0.00 0.00 0.00 39 1013.8
20260508215944 20 286 0.0 1.6 0.00 0.00 0.00 39 1013.8
20260508215442 21 284 1.6 1.6 0.00 0.00 0.00 41 1013.9
20260508214938 21 282 1.6 1.6 0.00 0.00 0.00 44 1013.8
20260508214437 21 290 0.0 3.2 0.00 0.00 0.00 35 1014.0
20260508213932 21 290 1.6 1.6 0.00 0.00 0.00 40 1014.1
20260508213430 21 280 1.6 1.6 0.00 0.00 0.00 39 1014.4
20260508212925 20 291 1.6 3.2 0.00 0.00 0.00 34 1013.9
20260508212422 20 296 1.6 4.8 0.00 0.00 0.00 36 1013.9
20260508211918 20 288 1.6 3.2 0.00 0.00 0.00 40 1013.8
20260508211414 21 280 1.6 1.6 0.00 0.00 0.00 38 1013.7
20260508210911 20 290 1.6 1.6 0.00 0.00 0.00 40 1013.8
20260508210407 20 300 3.2 3.2 0.00 0.00 0.00 37 1013.9
20260508205903 20 251 0.0 1.6 0.00 0.00 0.00 37 1013.7
20260508205401 20 240 1.6 3.2 0.00 0.00 0.00 35 1013.8
20260508204857 21 249 1.6 3.2 0.00 0.00 0.00 32 1013.9
20260508204354 21 289 0.0 3.2 0.00 0.00 0.00 37 1014.0
20260508203849 21 284 1.6 3.2 0.00 0.00 0.00 30 1014.0
20260508203346 22 248 3.2 3.2 0.00 0.00 0.00 33 1013.9
20260508202841 21 293 0.0 1.6 0.00 0.00 0.00 29 1013.8
20260508202340 21 251 1.6 1.6 0.00 0.00 0.00 33 1013.9
20260508201837 20 291 1.6 3.2 0.00 0.00 0.00 34 1014.1
20260508201334 20 294 3.2 3.2 0.00 0.00 0.00 39 1014.2
20260508200830 20 231 1.6 3.2 0.00 0.00 0.00 40 1014.3
20260508200327 20 285 1.6 3.2 0.00 0.00 0.00 34 1014.5
20260508195822 20 293 1.6 3.2 0.00 0.00 0.00 38 1014.5
20260508195320 20 295 3.2 6.4 0.00 0.00 0.00 36 1014.4
20260508194816 21 281 1.6 3.2 0.00 0.00 0.00 41 1014.5
20260508194313 20 279 0.0 1.6 0.00 0.00 0.00 36 1014.5
20260508193810 20 272 0.0 1.6 0.00 0.00 0.00 41 1014.7
20260508193307 20 288 0.0 1.6 0.00 0.00 0.00 35 1014.7
20260508192803 20 275 1.6 4.8 0.00 0.00 0.00 39 1014.7
20260508192300 21 299 3.2 4.8 0.00 0.00 0.00 38 1015.2
20260508191757 21 280 1.6 3.2 0.00 0.00 0.00 38 1015.0
20260508191254 21 328 3.2 6.4 0.00 0.00 0.00 38 1014.8
20260508190752 20 291 3.2 3.2 0.00 0.00 0.00 36 1015.2
20260508190247 20 318 3.2 6.4 0.00 0.00 0.00 35 1015.1
20260508185744 20 279 1.6 3.2 0.00 0.00 0.00 37 1015.3
20260508185241 20 287 4.8 6.4 0.00 0.00 0.00 40 1015.2
20260508184738 19 289 1.6 3.2 0.00 0.00 0.00 38 1015.3
20260508184236 20 307 3.2 4.8 0.00 0.00 0.00 38 1015.5
20260508183732 20 287 1.6 3.2 0.00 0.00 0.00 36 1015.6
20260508183228 20 216 3.2 6.4 0.00 0.00 0.00 39 1015.5
20260508182724 20 310 3.2 4.8 0.00 0.00 0.00 37 1015.5
20260508182222 20 318 4.8 4.8 0.00 0.00 0.00 37 1015.6
20260508181718 19 280 1.6 1.6 0.00 0.00 0.00 42 1015.7
20260508181215 18 268 0.0 4.8 0.00 0.00 0.00 36 1015.8
20260508180711 18 286 0.0 3.2 0.00 0.00 0.00 39 1015.8
20260508180208 18 307 3.2 6.4 0.00 0.00 0.00 43 1015.8
20260508175705 18 289 1.6 4.8 0.00 0.00 0.00 38 1015.6
20260508175201 18 303 3.2 11.3 0.00 0.00 0.00 42 1015.8
20260508174659 17 288 3.2 4.8 0.00 0.00 0.00 47 1015.9
20260508174155 18 303 3.2 4.8 0.00 0.00 0.00 41 1016.0
20260508173652 17 271 0.0 3.2 0.00 0.00 0.00 40 1016.3
20260508173148 17 315 6.4 6.4 0.00 0.00 0.00 41 1016.4
20260508172646 17 284 1.6 6.4 0.00 0.00 0.00 40 1016.4
20260508172143 17 283 1.6 4.8 0.00 0.00 0.00 43 1016.5
20260508171639 17 301 3.2 3.2 0.00 0.00 0.00 38 1016.4
20260508171135 17 290 3.2 3.2 0.00 0.00 0.00 44 1016.6
20260508170633 17 295 3.2 3.2 0.00 0.00 0.00 36 1016.6
20260508170130 17 290 1.6 3.2 0.00 0.00 0.00 40 1016.9
20260508165627 16 313 3.2 4.8 0.00 0.00 0.00 41 1016.9
20260508165124 16 293 3.2 3.2 0.00 0.00 0.00 37 1017.2
20260508164620 16 299 3.2 3.2 0.00 0.00 0.00 42 1017.4
20260508164118 16 285 0.0 3.2 0.00 0.00 0.00 38 1017.2
20260508163615 16 292 3.2 4.8 0.00 0.00 0.00 41 1017.5
20260508163112 16 296 3.2 4.8 0.00 0.00 0.00 40 1017.5
20260508162608 15 303 1.6 4.8 0.00 0.00 0.00 35 1017.4
20260508162106 15 270 0.0 1.6 0.00 0.00 0.00 40 1017.5
20260508161602 15 274 1.6 3.2 0.00 0.00 0.00 34 1017.4
20260508161100 15 274 0.0 1.6 0.00 0.00 0.00 33 1017.2
20260508160558 14 285 1.6 1.6 0.00 0.00 0.00 41 1017.6
20260508160054 14 296 3.2 3.2 0.00 0.00 0.00 43 1017.5
20260508155552 13 277 1.6 3.2 0.00 0.00 0.00 48 1017.6
20260508155049 14 294 3.2 4.8 0.00 0.00 0.00 45 1017.8
20260508154546 13 293 3.2 3.2 0.00 0.00 0.00 50 1017.8
20260508154042 13 285 1.6 1.6 0.00 0.00 0.00 51 1018.0
20260508153539 13 288 3.2 4.8 0.00 0.00 0.00 51 1018.1
20260508153036 13 286 1.6 3.2 0.00 0.00 0.00 50 1018.2
20260508152533 12 281 1.6 4.8 0.00 0.00 0.00 50 1018.2
20260508152028 12 276 0.0 1.6 0.00 0.00 0.00 52 1018.1
20260508151525 12 291 1.6 3.2 0.00 0.00 0.00 58 1018.3
20260508151022 11 275 0.0 1.6 0.00 0.00 0.00 68 1018.4
20260508150519 11 266 0.0 1.6 0.00 0.00 0.00 67 1018.2
20260508150015 11 262 1.6 1.6 0.00 0.00 0.00 63 1018.2
20260508145512 11 271 0.0 1.6 0.00 0.00 0.00 68 1018.2
20260508145008 10 280 0.0 0.0 0.00 0.00 0.00 72 1018.5
20260508144506 10 280 0.0 1.6 0.00 0.00 0.00 72 1018.3
20260508144003 10 280 0.0 1.6 0.00 0.00 0.00 72 1018.4
20260508143500 10 280 0.0 3.2 0.00 0.00 0.00 72 1018.5
20260508142956 9 247 0.0 1.6 0.00 0.00 0.00 79 1018.4
20260508142454 9 247 1.6 1.6 0.00 0.00 0.00 75 1018.7
20260508141950 8 247 1.6 1.6 0.00 0.00 0.00 79 1018.7
20260508141447 8 247 0.0 3.2 0.00 0.00 0.00 78 1018.8
20260508140945 8 247 0.0 1.6 0.00 0.00 0.00 83 1018.7
20260508140442 8 247 3.2 3.2 0.00 0.00 0.00 84 1018.7
20260508135937 7 247 1.6 1.6 0.00 0.00 0.00 84 1018.7
20260508135434 7 247 1.6 1.6 0.00 0.00 0.00 85 1018.7
20260508134931 7 247 1.6 1.6 0.00 0.00 0.00 85 1018.8
20260508134427 7 247 0.0 1.6 0.00 0.00 0.00 88 1018.9
20260508133923 7 247 0.0 1.6 0.00 0.00 0.00 88 1018.7
20260508133421 6 247 1.6 1.6 0.00 0.00 0.00 89 1018.7
20260508132918 6 247 0.0 0.0 0.00 0.00 0.00 90 1018.9
20260508132416 6 247 0.0 0.0 0.00 0.00 0.00 91 1018.7
20260508131913 6 247 1.6 1.6 0.00 0.00 0.00 93 1018.9
20260508131408 5 247 0.0 0.0 0.00 0.00 0.00 95 1018.7
20260508130905 5 247 0.0 0.0 0.00 0.00 0.00 95 1018.8
20260508130402 5 247 0.0 0.0 0.00 0.00 0.00 96 1018.9
20260508125857 5 247 0.0 0.0 0.00 0.00 0.00 97 1018.8
20260508125354 5 247 0.0 0.0 0.00 0.00 0.00 97 1019.0
20260508124852 4 247 0.0 0.0 0.00 0.00 0.00 97 1018.8
20260508124349 4 247 0.0 0.0 0.00 0.00 0.00 97 1018.9
20260508123847 3 247 0.0 0.0 0.00 0.00 0.00 97 1018.8
20260508123345 3 247 0.0 0.0 0.00 0.00 0.00 97 1018.8
20260508122841 3 247 0.0 0.0 0.00 0.00 0.00 97 1018.7
20260508122338 3 247 0.0 0.0 0.00 0.00 0.00 97 1018.7
20260508121835 3 247 0.0 0.0 0.00 0.00 0.00 97 1018.5
20260508121334 3 247 0.0 0.0 0.00 0.00 0.00 97 1018.5
20260508120831 3 247 0.0 0.0 0.00 0.00 0.00 97 1018.4
20260508120329 3 247 0.0 0.0 0.00 0.00 0.00 97 1018.8
20260508115826 3 247 0.0 0.0 0.00 0.00 0.00 96 1018.4
20260508115324 3 247 0.0 0.0 0.00 0.00 0.00 96 1018.3
20260508114820 3 247 0.0 0.0 0.00 0.00 0.00 96 1018.3
20260508114317 3 247 0.0 0.0 0.00 0.00 0.00 96 1018.2
20260508113813 3 247 0.0 0.0 0.00 0.00 0.00 96 1018.2
20260508113312 3 247 0.0 0.0 0.00 0.00 0.00 96 1018.0
20260508112808 3 247 0.0 0.0 0.00 0.00 0.00 96 1018.0
20260508112307 3 247 0.0 0.0 0.00 0.00 0.00 96 1018.0
20260508111801 2 247 0.0 0.0 0.00 0.00 0.00 96 1018.1
20260508111259 3 247 0.0 0.0 0.00 0.00 0.00 96 1017.8
20260508110756 2 247 0.0 0.0 0.00 0.00 0.00 96 1017.7
20260508110253 3 247 0.0 0.0 0.00 0.00 0.00 96 1017.7
20260508105753 3 247 0.0 0.0 0.00 0.00 0.00 96 1017.6
20260508105250 3 247 0.0 0.0 0.00 0.00 0.00 96 1017.6
20260508104747 3 247 0.0 0.0 0.00 0.00 0.00 96 1017.5
20260508104244 3 247 0.0 0.0 0.00 0.00 0.00 96 1017.4
20260508103742 3 247 0.0 0.0 0.00 0.00 0.00 96 1017.4
20260508103238 3 247 0.0 0.0 0.00 0.00 0.00 95 1017.4
20260508102735 3 247 0.0 0.0 0.00 0.00 0.00 96 1017.2
20260508102233 3 247 0.0 0.0 0.00 0.00 0.00 96 1017.0
20260508101730 3 247 0.0 0.0 0.00 0.00 0.00 96 1017.0
20260508101228 3 247 0.0 0.0 0.00 0.00 0.00 96 1016.9
20260508100726 3 247 0.0 0.0 0.00 0.00 0.00 95 1017.2
20260508100223 3 247 0.0 0.0 0.00 0.00 0.00 95 1016.9
20260508095719 3 247 0.0 0.0 0.00 0.00 0.00 95 1016.8
20260508095217 3 247 0.0 0.0 0.00 0.00 0.00 95 1016.9
20260508094713 3 247 0.0 0.0 0.00 0.00 0.00 95 1016.7
20260508094210 3 247 0.0 0.0 0.00 0.00 0.00 95 1016.8
20260508093707 3 247 0.0 0.0 0.00 0.00 0.00 95 1016.8
20260508093205 3 247 0.0 0.0 0.00 0.00 0.00 95 1016.7
20260508092702 4 247 0.0 0.0 0.00 0.00 0.00 95 1016.8
20260508092200 4 247 0.0 0.0 0.00 0.00 0.00 95 1016.6
20260508091657 4 247 0.0 0.0 0.00 0.00 0.00 95 1016.8
20260508091155 4 247 0.0 0.0 0.00 0.00 0.00 95 1016.9
20260508090652 4 247 0.0 0.0 0.00 0.00 0.00 95 1016.6
20260508090150 4 247 0.0 0.0 0.00 0.00 0.00 95 1016.5
20260508085645 4 247 0.0 0.0 0.00 0.00 0.00 95 1016.4
20260508085143 4 247 0.0 0.0 0.00 0.00 0.00 95 1016.6
20260508084639 5 247 0.0 0.0 0.00 0.00 0.00 95 1016.6
20260508084136 5 247 0.0 0.0 0.00 0.00 0.00 95 1016.4
20260508083634 5 247 0.0 0.0 0.00 0.00 0.00 94 1016.6
20260508083131 5 247 0.0 0.0 0.00 0.00 0.00 94 1016.6
20260508082626 5 247 0.0 0.0 0.00 0.00 0.00 94 1016.7
20260508082124 5 247 0.0 0.0 0.00 0.00 0.00 93 1016.4
20260508081621 5 247 0.0 0.0 0.00 0.00 0.00 94 1016.3
20260508081117 5 247 0.0 0.0 0.00 0.00 0.00 93 1016.4
20260508080615 5 247 0.0 0.0 0.00 0.00 0.00 93 1016.4
20260508080113 5 247 0.0 0.0 0.00 0.00 0.00 94 1016.3
20260508075609 6 247 0.0 0.0 0.00 0.00 0.00 93 1016.0
20260508075106 6 247 0.0 0.0 0.00 0.00 0.00 93 1016.3
20260508074604 6 247 0.0 1.6 0.00 0.00 0.00 93 1016.3
20260508074101 6 247 0.0 1.6 0.00 0.00 0.00 93 1016.5
20260508073558 6 247 0.0 0.0 0.00 0.00 0.00 94 1016.3
20260508073056 6 247 0.0 0.0 0.00 0.00 0.00 94 1016.4
20260508072551 6 247 0.0 0.0 0.00 0.00 0.00 94 1016.4
20260508072048 6 247 0.0 0.0 0.00 0.00 0.00 94 1016.3
20260508071546 6 247 0.0 0.0 0.00 0.00 0.00 95 1016.4
20260508071044 6 247 0.0 1.6 0.00 0.00 0.00 95 1016.3
20260508070541 6 247 0.0 0.0 0.00 0.00 0.00 95 1016.5
20260508070039 6 247 0.0 0.0 0.00 0.00 0.00 95 1016.3
20260508065537 6 247 0.0 0.0 0.00 0.00 0.00 95 1016.4
20260508065035 6 247 0.0 0.0 0.00 0.00 0.00 95 1016.4
20260508064532 6 247 0.0 0.0 0.00 0.00 0.00 95 1016.3
20260508064030 6 247 0.0 0.0 0.00 0.00 0.00 95 1016.3
20260508063527 6 247 0.0 0.0 0.00 0.00 0.00 94 1016.5
20260508063025 7 247 0.0 0.0 0.00 0.00 0.00 95 1016.2
20260508062522 7 247 0.0 0.0 0.00 0.00 0.00 94 1016.3
20260508062018 7 247 0.0 0.0 0.00 0.00 0.00 94 1016.3
20260508061517 7 247 0.0 0.0 0.00 0.00 0.00 94 1016.4
20260508061013 7 247 0.0 0.0 0.00 0.00 0.00 94 1016.3
20260508060510 7 247 0.0 0.0 0.00 0.00 0.00 95 1016.4
20260508060008 7 247 0.0 0.0 0.00 0.00 0.00 94 1016.5
20260508055503 7 247 0.0 0.0 0.00 0.00 0.00 94 1016.5
20260508055000 7 247 0.0 0.0 0.00 0.00 0.00 94 1016.5
20260508054456 7 247 0.0 0.0 0.00 0.00 0.00 94 1016.4
20260508053953 7 247 0.0 0.0 0.00 0.00 0.00 94 1016.5
20260508053450 8 247 0.0 0.0 0.00 0.00 0.00 94 1016.3
20260508052948 8 247 0.0 0.0 0.00 0.00 0.00 94 1016.5
20260508052446 8 247 0.0 0.0 0.00 0.00 0.00 94 1016.5
20260508051942 8 247 0.0 0.0 0.00 0.00 0.00 94 1016.7
20260508051437 8 247 0.0 0.0 0.00 0.00 0.00 94 1016.7
20260508050934 8 247 0.0 0.0 0.00 0.00 0.00 94 1016.5
20260508050431 8 247 0.0 0.0 0.00 0.00 0.00 94 1016.4
20260508045927 8 247 0.0 0.0 0.00 0.00 0.00 94 1016.5
20260508045425 8 247 0.0 0.0 0.00 0.00 0.00 94 1016.7
20260508044922 8 247 0.0 0.0 0.00 0.00 0.00 94 1016.4
20260508044419 8 247 0.0 0.0 0.00 0.00 0.00 94 1016.0
20260508043914 8 247 0.0 0.0 0.00 0.00 0.00 94 1016.0
20260508043412 8 247 0.0 0.0 0.00 0.00 0.00 95 1016.3
20260508042908 8 247 0.0 0.0 0.00 0.00 0.00 95 1016.2
20260508042406 8 247 0.0 1.6 0.00 0.00 0.00 95 1016.2
20260508041903 7 255 0.0 0.0 0.00 0.00 0.00 95 1016.0
20260508041359 7 255 0.0 0.0 0.00 0.00 0.00 95 1016.2
20260508040855 7 255 0.0 0.0 0.00 0.00 0.00 95 1016.0
20260508040353 7 255 0.0 0.0 0.00 0.00 0.00 95 1015.9
20260508035851 7 255 0.0 0.0 0.00 0.30 0.30 95 1016.0
20260508035348 7 255 0.0 0.0 0.00 0.30 0.30 95 1016.0
20260508034844 7 255 0.0 0.0 0.00 0.30 0.30 95 1016.2
20260508034342 7 255 0.0 0.0 0.00 0.30 0.30 95 1015.9
20260508033838 7 255 0.0 0.0 0.00 0.30 0.30 95 1016.4
20260508033336 7 255 0.0 0.0 0.00 0.30 0.30 95 1016.3
20260508032833 7 255 0.0 0.0 0.00 0.30 0.30 95 1016.4
20260508032331 7 255 0.0 0.0 0.00 0.30 0.30 95 1016.3
20260508031827 7 255 0.0 0.0 0.00 0.30 0.30 95 1016.4
20260508031324 7 255 0.0 0.0 0.00 0.30 0.30 95 1016.5
20260508030821 7 255 0.0 0.0 0.00 0.30 0.30 95 1016.3
20260508030318 7 255 0.0 0.0 0.00 0.30 0.30 95 1016.3
20260508025814 6 255 0.0 0.0 0.00 0.30 0.30 95 1016.5
20260508025312 6 255 0.0 0.0 0.00 0.30 0.30 95 1016.5
20260508024808 6 255 0.0 0.0 0.00 0.30 0.30 94 1016.4
20260508024305 6 255 0.0 0.0 0.00 0.30 0.30 95 1016.3
20260508023802 6 255 0.0 0.0 0.00 0.30 0.30 94 1016.3
20260508023258 7 255 0.0 0.0 0.00 0.30 0.30 94 1016.0
20260508022754 7 255 0.0 0.0 0.00 0.30 0.30 94 1016.0
20260508022251 7 254 1.6 1.6 0.00 0.30 0.30 93 1015.9
20260508021748 7 255 0.0 0.0 0.00 0.30 0.30 93 1015.6
20260508021243 7 255 0.0 0.0 0.00 0.30 0.30 93 1015.5
20260508020741 7 255 0.0 1.6 0.00 0.30 0.30 93 1015.4
20260508020238 7 255 0.0 0.0 0.00 0.30 0.30 93 1015.5
20260508015735 7 255 0.0 0.0 0.00 0.30 0.30 93 1015.4
20260508015232 7 255 0.0 0.0 0.00 0.30 0.30 93 1015.4
20260508014729 7 255 0.0 0.0 0.00 0.30 0.30 93 1015.6
20260508014226 7 255 0.0 1.6 0.00 0.30 0.30 92 1015.3
20260508013721 8 255 0.0 0.0 0.00 0.30 0.30 92 1015.3
20260508013218 8 255 0.0 1.6 0.00 0.30 0.30 92 1015.4
20260508012716 8 255 0.0 0.0 0.00 0.30 0.30 91 1015.3
20260508012212 8 255 0.0 0.0 0.00 0.30 0.30 91 1015.3
20260508011711 8 255 0.0 0.0 0.00 0.30 0.30 90 1015.1
20260508011208 8 255 0.0 0.0 0.00 0.30 0.30 90 1015.2
20260508010705 8 255 0.0 1.6 0.00 0.30 0.30 89 1015.0
20260508010203 9 255 0.0 0.0 0.00 0.30 0.30 88 1014.8
20260508005700 9 255 0.0 0.0 0.00 0.30 0.30 88 1015.0
20260508005156 10 255 0.0 1.6 0.00 0.30 0.30 87 1014.8
20260508004652 10 256 0.0 0.0 0.00 0.30 0.30 86 1014.6
20260508004148 10 256 0.0 0.0 0.00 0.30 0.30 85 1014.7
20260508003645 10 256 0.0 0.0 0.00 0.30 0.30 84 1014.5
20260508003143 10 256 0.0 0.0 0.00 0.30 0.30 83 1014.6
20260508002639 11 256 0.0 0.0 0.00 0.30 0.30 82 1014.6
20260508002137 11 256 0.0 0.0 0.00 0.30 0.30 81 1014.3
20260508001631 11 256 0.0 0.0 0.00 0.30 0.30 82 1014.5
20260508001128 11 256 0.0 0.0 0.00 0.30 0.30 81 1014.3